EW0890 Weather Reports


time (UTC)temp
C
wind
direction
speed
KPH
gust
KPH
rain 1hr
cm
rain 24hr
cm
rain mn
cm
humidity
%
barometer
mb
20260831045012 22 136 0.0 1.6 0.00 0.18 0.18 77 1015.7
20260831044602 22 227 0.0 3.2 0.00 0.18 0.18 77 1015.8
20260831044531 22 224 0.0 1.6 0.00 0.18 0.18 77 1015.7
20260831044014 22 154 0.0 3.2 0.00 0.18 0.18 77 1015.7
20260831043519 22 273 0.0 3.2 0.00 0.18 0.18 77 1015.7
20260831043103 22 77 0.0 3.2 0.00 0.18 0.18 78 1015.7
20260831043034 22 219 0.0 3.2 0.00 0.18 0.18 78 1015.8
20260831042518 22 158 0.0 3.2 0.00 0.18 0.18 77 1015.8
20260831042004 22 339 0.0 1.6 0.00 0.18 0.18 78 1015.9
20260831041606 22 0 0.0 1.6 0.00 0.18 0.18 78 1016.0
20260831041516 22 213 0.0 1.6 0.00 0.18 0.18 78 1015.9
20260831041008 22 153 0.0 1.6 0.00 0.18 0.18 78 1015.9
20260831040508 22 219 0.0 1.6 0.00 0.18 0.18 78 1015.9
20260831040106 22 153 0.0 1.6 0.00 0.18 0.18 78 1015.9
20260831040026 22 153 0.0 1.6 0.00 0.18 0.18 78 1015.8
20260831035510 22 162 0.0 1.6 0.00 0.18 0.18 78 1015.8
20260831035009 22 204 0.0 1.6 0.00 0.18 0.18 78 1015.8
20260831034612 22 0 0.0 3.2 0.00 0.18 0.18 79 1015.8
20260831034526 22 278 0.0 1.6 0.00 0.18 0.18 78 1015.8
20260831034015 22 269 0.0 3.2 0.00 0.18 0.18 79 1015.8
20260831033513 22 212 0.0 3.2 0.00 0.18 0.18 79 1015.8
20260831033107 22 174 0.0 3.2 0.00 0.18 0.18 81 1015.8
20260831033031 22 174 0.0 3.2 0.00 0.18 0.18 81 1015.8
20260831032516 22 212 0.0 3.2 0.00 0.18 0.18 82 1015.8
20260831032014 22 171 0.0 3.2 0.00 0.18 0.18 83 1015.9
20260831031605 22 153 0.0 3.2 0.00 0.18 0.18 84 1015.9
20260831031540 21 153 0.0 3.2 0.00 0.18 0.18 84 1016.0
20260831031013 21 148 0.0 1.6 0.00 0.18 0.18 86 1016.0
20260831030507 21 178 0.0 1.6 0.00 0.18 0.18 87 1016.0
20260831030106 21 0 0.0 1.6 0.00 0.18 0.18 88 1016.0
20260831030017 21 178 0.0 1.6 0.00 0.18 0.18 88 1015.9
20260831025510 21 102 0.0 1.6 0.00 0.18 0.18 89 1015.7
20260831025011 21 91 0.0 3.2 0.00 0.18 0.18 90 1015.9
20260831024603 21 96 0.0 3.2 0.00 0.18 0.18 90 1016.0
20260831024521 21 96 0.0 3.2 0.00 0.18 0.18 90 1016.0
20260831024012 21 86 0.0 1.6 0.00 0.18 0.18 90 1016.2
20260831023512 21 83 0.0 3.2 0.00 0.18 0.18 90 1016.3
20260831023110 21 83 0.0 3.2 0.00 0.18 0.18 90 1016.3
20260831023029 21 83 0.0 3.2 0.00 0.18 0.18 90 1016.3
20260831022513 21 84 0.0 1.6 0.00 0.18 0.18 90 1016.2
20260831022003 21 84 0.0 0.0 0.00 0.18 0.18 90 1016.2
20260831021607 21 0 0.0 0.0 0.00 0.18 0.18 90 1016.2
20260831021508 21 84 0.0 0.0 0.00 0.18 0.18 90 1016.2
20260831021004 22 84 0.0 0.0 0.00 0.18 0.18 90 1016.1
20260831020505 22 84 0.0 0.0 0.00 0.18 0.18 89 1016.1
20260831020109 22 0 0.0 0.0 0.00 0.18 0.18 89 1016.0
20260831020014 22 84 0.0 0.0 0.00 0.18 0.18 88 1016.0
20260831015508 22 84 0.0 0.0 0.00 0.18 0.18 87 1015.9
20260831015008 22 84 0.0 0.0 0.00 0.18 0.18 87 1016.0
20260831014626 22 0 0.0 0.0 0.00 0.18 0.18 86 1015.8
20260831014518 22 84 0.0 0.0 0.00 0.18 0.18 86 1015.8
20260831014014 23 84 0.0 0.0 0.00 0.18 0.18 86 1015.8
20260831013511 23 84 0.0 0.0 0.00 0.18 0.18 85 1016.0
20260831013107 23 0 0.0 0.0 0.00 0.18 0.18 86 1015.9
20260831013025 23 84 0.0 0.0 0.00 0.18 0.18 86 1016.0
20260831012512 23 84 0.0 0.0 0.00 0.18 0.18 86 1015.9
20260831012014 23 84 0.0 0.0 0.00 0.18 0.18 85 1015.9
20260831011605 23 0 0.0 1.6 0.00 0.18 0.18 85 1015.7
20260831011530 23 84 0.0 1.6 0.00 0.18 0.18 85 1015.8
20260831011015 23 84 0.0 1.6 0.00 0.18 0.18 85 1015.8
20260831010504 23 84 1.6 1.6 0.00 0.18 0.18 86 1015.6
20260831010109 23 96 0.0 1.6 0.00 0.18 0.18 86 1015.4
20260831010009 23 90 0.0 1.6 0.00 0.18 0.18 86 1015.5
20260831004605 24 0 0.0 1.6 0.00 0.18 0.18 86 1015.4
20260831004515 24 96 0.0 1.6 0.00 0.18 0.18 86 1015.5
20260831004010 24 96 0.0 1.6 0.00 0.18 0.18 85 1015.5
20260831003509 25 101 0.0 1.6 0.00 0.18 0.18 84 1015.6
20260831003107 25 102 0.0 1.6 0.00 0.18 0.18 84 1015.6
20260831003023 25 101 0.0 1.6 0.00 0.18 0.18 83 1015.7
20260831002510 25 101 0.0 0.0 0.00 0.18 0.18 82 1015.8
20260831002012 25 103 0.0 0.0 0.00 0.18 0.18 80 1015.8
20260831001620 25 0 0.0 0.0 0.00 0.18 0.18 80 1015.7
20260831001527 25 205 0.0 0.0 0.00 0.18 0.18 79 1015.8
20260831001015 26 205 0.0 0.0 0.00 0.18 0.18 78 1015.8
20260831000516 26 205 0.0 1.6 0.00 0.18 0.18 77 1015.8
20260831000110 26 0 0.0 1.6 0.00 0.18 0.18 75 1015.7
20260831000035 26 205 0.0 1.6 0.00 0.18 0.18 75 1015.8
20260830235513 26 210 0.0 1.6 0.00 0.18 0.18 75 1015.7
20260830235005 26 210 0.0 0.0 0.00 0.18 0.18 74 1015.8
20260830234613 27 0 0.0 0.0 0.00 0.18 0.18 74 1015.7
20260830234522 27 228 0.0 0.0 0.00 0.18 0.18 74 1015.8
20260830234005 27 228 0.0 0.0 0.00 0.18 0.18 73 1015.8
20260830233508 27 228 0.0 0.0 0.00 0.18 0.18 72 1015.8
20260830233133 28 0 0.0 1.6 0.00 0.18 0.18 71 1015.8
20260830233017 28 228 0.0 1.6 0.00 0.18 0.18 70 1015.9
20260830232511 28 229 0.0 1.6 0.00 0.18 0.18 68 1015.8
20260830232015 29 227 0.0 0.0 0.00 0.18 0.18 67 1015.8
20260830231605 29 0 0.0 1.6 0.00 0.18 0.18 66 1015.8
20260830231524 29 304 0.0 1.6 0.00 0.18 0.18 66 1015.8
20260830231015 30 304 0.0 1.6 0.00 0.18 0.18 65 1015.8
20260830230511 30 262 0.0 1.6 0.00 0.18 0.18 65 1015.8
20260830230120 30 0 0.0 1.6 0.00 0.18 0.18 65 1015.7
20260830230031 30 205 0.0 1.6 0.00 0.18 0.18 66 1015.8
20260830225513 30 262 0.0 1.6 0.00 0.18 0.18 65 1015.8
20260830225016 30 151 0.0 3.2 0.00 0.18 0.18 66 1015.7
20260830224601 29 0 0.0 3.2 0.00 0.18 0.18 69 1015.7
20260830224531 29 222 0.0 3.2 0.00 0.18 0.18 68 1015.7
20260830224015 29 195 0.0 1.6 0.00 0.18 0.18 68 1015.6
20260830223504 28 243 0.0 1.6 0.00 0.18 0.18 70 1015.7
20260830223104 28 0 0.0 1.6 0.00 0.18 0.18 69 1015.8
20260830223016 28 239 0.0 1.6 0.00 0.18 0.18 70 1015.8
20260830222507 28 254 0.0 1.6 0.00 0.18 0.18 67 1015.8
20260830222012 28 198 0.0 1.6 0.00 0.18 0.18 67 1015.6
20260830221610 28 196 0.0 3.2 0.00 0.18 0.18 68 1015.5
20260830221529 28 202 0.0 3.2 0.00 0.18 0.18 69 1015.5
20260830221010 28 256 0.0 6.4 0.00 0.18 0.18 68 1015.3
20260830220510 28 243 1.6 6.4 0.00 0.18 0.18 68 1015.2
20260830220109 28 242 1.6 6.4 0.00 0.18 0.18 69 1015.2
20260830220030 28 207 1.6 6.4 0.00 0.18 0.18 68 1015.1
20260830215512 28 6 1.6 8.0 0.00 0.18 0.18 69 1014.9
20260830215014 28 174 3.2 8.0 0.00 0.18 0.18 68 1015.0
20260830214606 28 56 3.2 8.0 0.00 0.18 0.18 67 1015.0
20260830214530 28 141 3.2 8.0 0.00 0.18 0.18 67 1015.0
20260830214013 28 317 1.6 8.0 0.00 0.18 0.18 68 1015.0
20260830213516 29 290 3.2 8.0 0.00 0.18 0.18 67 1014.9
20260830213103 29 130 3.2 8.0 0.00 0.18 0.18 67 1015.0
20260830213030 29 226 3.2 8.0 0.00 0.18 0.18 67 1014.9
20260830212519 29 283 3.2 8.0 0.00 0.18 0.18 70 1014.9
20260830212008 28 272 3.2 8.0 0.00 0.18 0.18 69 1014.9
20260830211603 28 285 1.6 6.4 0.00 0.18 0.18 68 1015.0
20260830211515 28 52 1.6 6.4 0.00 0.18 0.18 68 1015.0
20260830211008 28 254 3.2 6.4 0.00 0.18 0.18 69 1015.0
20260830210509 28 120 1.6 6.4 0.00 0.18 0.18 71 1015.1
20260830210106 28 165 1.6 6.4 0.00 0.18 0.18 71 1015.3
20260830210027 28 62 1.6 6.4 0.00 0.18 0.18 72 1015.3
20260830205512 28 292 1.6 4.8 0.00 0.18 0.18 72 1015.5
20260830205011 28 139 1.6 4.8 0.00 0.18 0.18 72 1015.6
20260830204606 28 221 1.6 6.4 0.00 0.18 0.18 71 1015.8
20260830204536 28 214 1.6 4.8 0.00 0.18 0.18 71 1015.7
20260830204014 28 145 1.6 6.4 0.00 0.18 0.18 72 1015.7
20260830203516 28 225 3.2 6.4 0.00 0.18 0.18 69 1015.8
20260830203104 29 276 1.6 9.7 0.00 0.18 0.18 68 1015.7
20260830203038 29 313 1.6 6.4 0.00 0.18 0.18 68 1015.8
20260830202514 29 258 3.2 9.7 0.00 0.18 0.18 67 1015.7
20260830202016 29 71 3.2 9.7 0.00 0.18 0.18 65 1015.8
20260830201606 30 40 3.2 8.0 0.00 0.18 0.18 66 1015.7
20260830201532 30 41 3.2 8.0 0.00 0.18 0.18 65 1015.8
20260830201015 30 314 3.2 9.7 0.00 0.18 0.18 65 1015.9
20260830200508 30 273 1.6 9.7 0.00 0.18 0.18 67 1015.9
20260830200029 30 310 3.2 8.0 0.00 0.18 0.18 68 1016.0
20260830195509 30 271 3.2 8.0 0.00 0.18 0.18 67 1015.9
20260830195008 30 216 3.2 8.0 0.00 0.18 0.18 70 1015.9
20260830194616 29 337 3.2 6.4 0.00 0.18 0.18 71 1016.0
20260830194525 29 286 3.2 6.4 0.00 0.18 0.18 70 1015.9
20260830194015 29 154 3.2 6.4 0.00 0.18 0.18 71 1016.0
20260830193512 29 188 1.6 6.4 0.00 0.18 0.18 71 1016.0
20260830193102 28 234 1.6 8.0 0.00 0.18 0.18 72 1016.1
20260830193030 28 288 1.6 8.0 0.00 0.18 0.18 72 1016.0
20260830192515 28 123 1.6 8.0 0.00 0.18 0.18 74 1016.0
20260830192016 28 90 1.6 4.8 0.00 0.18 0.18 74 1016.0
20260830191605 28 269 1.6 8.0 0.00 0.18 0.18 75 1016.1
20260830191534 28 12 0.0 8.0 0.00 0.18 0.18 75 1016.1
20260830191017 28 245 1.6 8.0 0.00 0.18 0.18 74 1016.2
20260830190519 28 218 1.6 8.0 0.00 0.18 0.18 74 1016.2
20260830190104 27 262 1.6 8.0 0.00 0.18 0.18 73 1016.2
20260830190032 27 170 1.6 8.0 0.00 0.18 0.18 73 1016.2
20260830185508 27 146 1.6 6.4 0.00 0.18 0.18 74 1016.3
20260830185007 27 93 3.2 6.4 0.00 0.18 0.18 74 1016.3
20260830184605 27 128 1.6 6.4 0.00 0.18 0.18 75 1016.3
20260830184524 27 143 3.2 6.4 0.00 0.18 0.18 75 1016.3
20260830184009 27 305 1.6 6.4 0.00 0.18 0.18 74 1016.4
20260830183511 27 225 1.6 6.4 0.00 0.18 0.18 74 1016.4
20260830183109 27 274 1.6 4.8 0.00 0.18 0.18 74 1016.6
20260830183028 27 172 1.6 4.8 0.00 0.18 0.18 74 1016.5
20260830182513 27 318 1.6 8.0 0.00 0.18 0.18 73 1016.6
20260830182015 28 108 3.2 8.0 0.00 0.18 0.18 73 1016.7
20260830181601 28 170 1.6 6.4 0.00 0.18 0.18 74 1016.8
20260830181530 28 226 1.6 6.4 0.00 0.18 0.18 74 1016.7
20260830181014 27 210 3.2 9.7 0.00 0.18 0.18 73 1016.7
20260830180518 27 266 3.2 9.7 0.00 0.18 0.18 72 1016.8
20260830180105 27 285 1.6 8.0 0.00 0.18 0.18 74 1017.0
20260830180048 27 314 1.6 8.0 0.00 0.18 0.18 74 1016.8
20260830175518 27 188 3.2 8.0 0.00 0.18 0.18 73 1016.9
20260830175020 27 285 3.2 9.7 0.00 0.18 0.18 72 1016.9
20260830174616 28 319 4.8 9.7 0.00 0.18 0.18 71 1017.0
20260830174534 28 255 4.8 9.7 0.00 0.18 0.18 70 1017.0
20260830174008 28 204 4.8 9.7 0.00 0.18 0.18 72 1017.1
20260830173510 28 290 3.2 8.0 0.00 0.18 0.18 75 1017.2
20260830173105 28 259 3.2 8.0 0.00 0.18 0.18 75 1017.3
20260830173016 28 324 3.2 8.0 0.00 0.18 0.18 75 1017.4
20260830172506 27 297 3.2 8.0 0.00 0.18 0.18 77 1017.4
20260830172006 27 266 3.2 6.4 0.00 0.18 0.18 77 1017.4
20260830171607 27 210 3.2 8.0 0.00 0.18 0.18 77 1017.4
20260830171506 26 237 3.2 8.0 0.00 0.18 0.18 77 1017.5
20260830171004 26 250 3.2 9.7 0.00 0.18 0.18 80 1017.6
20260830170504 26 279 3.2 9.7 0.00 0.18 0.18 78 1017.6
20260830170108 25 311 3.2 8.0 0.00 0.18 0.18 78 1017.7
20260830170008 25 231 1.6 8.0 0.00 0.18 0.18 78 1017.8
20260830165503 25 265 3.2 6.4 0.00 0.18 0.18 77 1017.8
20260830165003 25 299 1.6 6.4 0.00 0.18 0.18 76 1017.9
20260830164605 25 264 3.2 8.0 0.00 0.18 0.18 76 1017.9
20260830164536 26 295 3.2 6.4 0.00 0.18 0.18 76 1018.0
20260830164008 26 268 3.2 8.0 0.00 0.18 0.18 76 1018.0
20260830163506 26 233 4.8 9.7 0.00 0.18 0.18 74 1018.0
20260830163108 26 263 4.8 9.7 0.00 0.18 0.18 75 1017.9
20260830163018 26 252 4.8 9.7 0.00 0.18 0.18 75 1018.0
20260830162510 26 294 4.8 8.0 0.00 0.18 0.18 78 1017.8
20260830162009 26 292 3.2 6.4 0.00 0.18 0.18 79 1017.8
20260830161606 26 255 3.2 6.4 0.00 0.18 0.18 79 1017.7
20260830161519 26 316 3.2 6.4 0.00 0.18 0.18 80 1017.8
20260830161004 25 297 1.6 6.4 0.00 0.18 0.18 80 1017.8
20260830160503 25 294 3.2 8.0 0.00 0.18 0.18 78 1017.7
20260830160117 25 245 3.2 8.0 0.00 0.18 0.18 78 1017.6
20260830160008 25 276 3.2 8.0 0.00 0.18 0.18 77 1017.6
20260830155503 25 237 3.2 8.0 0.00 0.18 0.18 78 1017.5
20260830155005 25 283 1.6 6.4 0.00 0.18 0.18 79 1017.4
20260830154610 25 245 3.2 8.0 0.00 0.18 0.18 79 1017.4
20260830154512 25 257 3.2 8.0 0.00 0.18 0.18 80 1017.3
20260830154005 25 283 1.6 8.0 0.00 0.18 0.18 80 1017.4
20260830153504 24 212 1.6 6.4 0.00 0.18 0.18 80 1017.3
20260830153124 24 117 1.6 6.4 0.00 0.18 0.18 80 1017.1
20260830153017 24 300 3.2 6.4 0.00 0.18 0.18 81 1017.0
20260830152506 24 248 1.6 6.4 0.00 0.18 0.18 82 1016.9
20260830152010 24 46 1.6 4.8 0.00 0.18 0.18 83 1017.0
20260830151610 23 241 1.6 8.0 0.00 0.18 0.18 83 1017.0
20260830151523 23 291 1.6 8.0 0.00 0.18 0.18 83 1017.0
20260830151012 23 299 1.6 8.0 0.00 0.18 0.18 83 1016.9
20260830150512 23 356 0.0 6.4 0.00 0.18 0.18 85 1016.9
20260830150121 23 211 1.6 6.4 0.00 0.18 0.18 86 1017.0
20260830150034 23 158 1.6 6.4 0.00 0.18 0.18 86 1017.0
20260830145505 23 228 1.6 3.2 0.00 0.18 0.18 86 1017.1
20260830145003 22 93 1.6 3.2 0.00 0.18 0.18 86 1017.2
20260830144619 22 229 0.0 3.2 0.03 0.18 0.18 87 1017.3
20260830144511 22 98 0.0 3.2 0.03 0.18 0.18 87 1017.3
20260830144003 22 131 0.0 1.6 0.05 0.18 0.18 89 1017.5
20260830143504 22 186 0.0 1.6 0.18 0.18 0.18 91 1017.8
20260830143103 22 0 0.0 1.6 0.18 0.18 0.18 91 1017.8
20260830143013 22 124 0.0 1.6 0.18 0.18 0.18 91 1017.8
20260830142509 21 96 0.0 1.6 0.18 0.18 0.18 91 1017.9
20260830142008 21 96 0.0 1.6 0.18 0.18 0.18 90 1018.0
20260830141609 21 0 0.0 1.6 0.18 0.18 0.18 91 1018.1
20260830141517 21 96 0.0 1.6 0.18 0.18 0.18 90 1018.1
20260830141011 21 111 0.0 1.6 0.18 0.18 0.18 90 1018.0
20260830140515 21 150 0.0 1.6 0.18 0.18 0.18 89 1018.0
20260830140108 21 124 0.0 1.6 0.18 0.18 0.18 89 1018.0
20260830140023 21 124 0.0 1.6 0.18 0.18 0.18 89 1018.0
20260830135514 21 188 0.0 1.6 0.18 0.18 0.18 88 1018.1
20260830135011 21 258 0.0 1.6 0.18 0.18 0.18 87 1018.1
20260830134608 21 0 0.0 1.6 0.15 0.15 0.15 86 1018.1
20260830134527 21 258 0.0 1.6 0.15 0.15 0.15 86 1018.1
20260830134003 21 261 0.0 1.6 0.13 0.13 0.13 85 1018.1
20260830133505 21 269 0.0 3.2 0.00 0.00 0.00 84 1018.0
20260830133105 21 0 0.0 3.2 0.00 0.00 0.00 83 1017.7
20260830133014 21 262 0.0 3.2 0.00 0.00 0.00 83 1017.8
20260830132504 21 311 0.0 4.8 0.00 0.00 0.00 84 1017.6
20260830132007 21 271 0.0 4.8 0.00 0.00 0.00 84 1017.4
20260830131607 21 260 1.6 6.4 0.00 0.00 0.00 84 1017.3
20260830131523 21 283 1.6 6.4 0.00 0.00 0.00 84 1017.2
20260830131008 21 223 1.6 6.4 0.00 0.00 0.00 84 1017.1
20260830130509 21 277 1.6 6.4 0.00 0.00 0.00 84 1017.1
20260830130109 21 282 1.6 4.8 0.00 0.00 0.00 84 1017.1
20260830130025 21 302 1.6 3.2 0.00 0.00 0.00 84 1017.0
20260830125511 21 271 1.6 4.8 0.00 0.00 0.00 84 1017.1
20260830125010 21 284 1.6 4.8 0.00 0.00 0.00 83 1017.0
20260830124600 21 296 1.6 6.4 0.00 0.00 0.00 84 1016.9
20260830124527 21 242 1.6 6.4 0.00 0.00 0.00 84 1016.9
20260830124012 21 271 1.6 6.4 0.00 0.00 0.00 84 1016.8
20260830123515 21 282 1.6 4.8 0.00 0.00 0.00 84 1016.8
20260830123109 21 233 1.6 4.8 0.00 0.00 0.00 84 1016.6
20260830123028 21 283 1.6 4.8 0.00 0.00 0.00 84 1016.7
20260830122504 21 307 1.6 6.4 0.00 0.00 0.00 84 1016.6
20260830122004 21 281 1.6 6.4 0.00 0.00 0.00 84 1016.6
20260830121607 20 270 3.2 6.4 0.00 0.00 0.00 85 1016.3
20260830121513 20 210 3.2 6.4 0.00 0.00 0.00 85 1016.4
20260830121007 20 291 3.2 6.4 0.00 0.00 0.00 85 1016.4
20260830120508 20 288 1.6 4.8 0.00 0.00 0.00 85 1016.3
20260830120108 20 243 1.6 4.8 0.00 0.00 0.00 85 1016.2
20260830120020 20 293 1.6 4.8 0.00 0.00 0.00 85 1016.4
20260830115508 20 209 0.0 6.4 0.00 0.00 0.00 85 1016.3
20260830115013 20 338 1.6 6.4 0.00 0.00 0.00 85 1016.4
20260830114614 21 224 1.6 6.4 0.00 0.00 0.00 84 1016.2
20260830114525 21 109 1.6 6.4 0.00 0.00 0.00 84 1016.3
20260830114013 21 333 3.2 6.4 0.00 0.00 0.00 84 1016.3
20260830113513 21 170 3.2 6.4 0.00 0.00 0.00 83 1016.2
20260830113103 21 266 3.2 6.4 0.00 0.00 0.00 83 1016.2
20260830113029 21 269 3.2 6.4 0.00 0.00 0.00 83 1016.2
20260830112512 20 290 1.6 6.4 0.00 0.00 0.00 84 1016.1
20260830112014 20 154 3.2 6.4 0.00 0.00 0.00 84 1016.0
20260830111603 20 229 1.6 6.4 0.00 0.00 0.00 85 1015.9
20260830111528 20 284 1.6 6.4 0.00 0.00 0.00 85 1016.0
20260830111006 20 302 3.2 6.4 0.00 0.00 0.00 85 1016.0
20260830110504 20 235 1.6 6.4 0.00 0.00 0.00 85 1015.9
20260830110112 20 65 1.6 6.4 0.00 0.00 0.00 85 1015.9
20260830110018 20 96 3.2 6.4 0.00 0.00 0.00 85 1015.9
20260830105507 20 264 1.6 6.4 0.00 0.00 0.00 85 1016.0
20260830105007 20 277 1.6 6.4 0.00 0.00 0.00 85 1016.0
20260830104609 20 280 1.6 6.4 0.00 0.00 0.00 85 1016.0
20260830104519 20 141 1.6 6.4 0.00 0.00 0.00 85 1016.0
20260830104011 20 243 1.6 6.4 0.00 0.00 0.00 85 1016.1
20260830103512 20 273 1.6 6.4 0.00 0.00 0.00 85 1016.1
20260830103102 20 295 1.6 6.4 0.00 0.00 0.00 85 1016.1
20260830103028 20 280 1.6 6.4 0.00 0.00 0.00 85 1016.2
20260830102512 20 273 1.6 6.4 0.00 0.00 0.00 85 1016.1
20260830102014 20 296 1.6 6.4 0.00 0.00 0.00 85 1016.2
20260830101604 20 226 1.6 4.8 0.00 0.00 0.00 85 1016.1
20260830101530 20 219 1.6 4.8 0.00 0.00 0.00 85 1016.2
20260830101018 20 264 1.6 4.8 0.00 0.00 0.00 85 1016.2
20260830100514 20 285 1.6 4.8 0.00 0.00 0.00 85 1016.2
20260830100105 20 259 1.6 6.4 0.00 0.00 0.00 85 1016.0
20260830100033 20 291 1.6 6.4 0.00 0.00 0.00 85 1016.1
20260830095507 20 288 1.6 6.4 0.00 0.00 0.00 86 1016.1
20260830095007 20 302 1.6 6.4 0.00 0.00 0.00 86 1016.2
20260830094605 20 308 0.0 4.8 0.00 0.00 0.00 86 1016.1
20260830094519 20 326 1.6 4.8 0.00 0.00 0.00 86 1016.3
20260830094008 20 278 1.6 4.8 0.00 0.00 0.00 86 1016.3
20260830093508 20 301 1.6 4.8 0.00 0.00 0.00 86 1016.3
20260830093104 20 231 1.6 4.8 0.00 0.00 0.00 87 1016.1
20260830093022 20 340 0.0 4.8 0.00 0.00 0.00 87 1016.3
20260830092513 20 201 0.0 4.8 0.00 0.00 0.00 87 1016.3
20260830092011 20 231 1.6 4.8 0.00 0.00 0.00 87 1016.3
20260830091612 20 249 1.6 4.8 0.00 0.00 0.00 87 1016.2
20260830091531 20 329 1.6 4.8 0.00 0.00 0.00 87 1016.4
20260830091015 20 191 1.6 4.8 0.00 0.00 0.00 88 1016.3
20260830090514 20 273 1.6 6.4 0.00 0.00 0.00 88 1016.3
20260830090113 20 250 1.6 6.4 0.00 0.00 0.00 88 1016.2
20260830090032 20 212 0.0 6.4 0.00 0.00 0.00 88 1016.4
20260830085515 20 157 0.0 4.8 0.00 0.00 0.00 88 1016.4
20260830085016 20 231 0.0 4.8 0.00 0.00 0.00 88 1016.4
20260830084607 20 5 0.0 4.8 0.00 0.00 0.00 88 1016.3
20260830084531 20 262 0.0 4.8 0.00 0.00 0.00 88 1016.5
20260830084007 20 250 1.6 4.8 0.00 0.00 0.00 88 1016.5
20260830083511 20 247 1.6 4.8 0.00 0.00 0.00 89 1016.4
20260830083104 19 281 1.6 4.8 0.00 0.00 0.00 89 1016.4
20260830083023 19 293 0.0 4.8 0.00 0.00 0.00 89 1016.5
20260830082512 19 311 0.0 4.8 0.00 0.00 0.00 89 1016.5
20260830082013 19 252 1.6 6.4 0.00 0.00 0.00 89 1016.5
20260830081604 19 284 1.6 6.4 0.00 0.00 0.00 89 1016.2
20260830081527 19 274 1.6 6.4 0.00 0.00 0.00 89 1016.4
20260830081013 19 266 1.6 6.4 0.00 0.00 0.00 89 1016.4
20260830080511 19 264 1.6 4.8 0.00 0.00 0.00 89 1016.4
20260830080104 19 259 1.6 4.8 0.00 0.00 0.00 89 1016.3
20260830080032 19 290 0.0 4.8 0.00 0.00 0.00 89 1016.4
20260830075514 19 262 1.6 4.8 0.00 0.00 0.00 88 1016.5
20260830075016 19 158 1.6 4.8 0.00 0.00 0.00 88 1016.6
20260830074606 19 224 1.6 4.8 0.00 0.00 0.00 88 1016.5
20260830074533 19 302 1.6 4.8 0.00 0.00 0.00 88 1016.6
20260830074005 19 310 1.6 3.2 0.00 0.00 0.00 88 1016.6
20260830073504 19 293 0.0 4.8 0.00 0.00 0.00 88 1016.6
20260830073420 19 293 0.0 4.8 0.00 0.00 0.00 87 1016.6
20260830073417 19 281 1.6 4.8 0.00 0.00 0.00 87 1016.6
20260830073412 19 0 0.0 4.8 0.00 0.00 0.00 88 1016.5
20260830073404 19 272 1.6 4.8 0.00 0.00 0.00 87 1016.6
20260830073401 20 256 1.6 4.8 0.00 0.00 0.00 86 1016.6
20260830073356 19 136 0.0 3.2 0.00 0.00 0.00 87 1017.2
20260830050115 20 139 0.0 3.2 0.00 0.00 0.00 86 1017.5
20260830050025 20 257 0.0 3.2 0.00 0.00 0.00 86 1017.4
20260830045509 20 73 0.0 3.2 0.00 0.00 0.00 86 1017.4